This is the latest recevied weather packets stored in our database for station/object KE8WAY. If no packets are shown the sender has not sent any weather packets the latest 10 day(s).
| Time | Temp. | Humidity | Pressure | Rain* | Wind** | Luminosity | Snow |
|---|---|---|---|---|---|---|---|
| 1777123390 | 15.56° C | 84% | 1009.7 hPa | 0 mm | - | 185 W/m² | - |
| 1777123086 | 15.56° C | 86% | 1009.5 hPa | 0 mm | - | 178 W/m² | - |
| 1777122783 | 15.56° C | 85% | 1009.6 hPa | 0 mm | - | 171 W/m² | - |
| 1777122479 | 15.56° C | 86% | 1009.7 hPa | 0 mm | - | 113 W/m² | - |
| 1777122176 | 15.56° C | 86% | 1009.5 hPa | 0 mm | - | 123 W/m² | - |
| 1777121871 | 15.56° C | 88% | 1009.5 hPa | 0 mm | - | 131 W/m² | - |
| 1777121568 | 15.56° C | 87% | 1009.4 hPa | 0 mm | - | 139 W/m² | - |
| 1777121264 | 15.56° C | 88% | 1009.1 hPa | 0 mm | - | 124 W/m² | - |
| 1777120961 | 15.56° C | 85% | 1009.5 hPa | 0 mm | - | 107 W/m² | - |
| 1777120657 | 15.56° C | 86% | 1009.3 hPa | 0 mm | - | 93 W/m² | - |
| 1777120353 | 15° C | 86% | 1009.3 hPa | 0 mm | - | 85 W/m² | - |
| 1777120048 | 15° C | 86% | 1009.3 hPa | 0 mm | - | 58 W/m² | - |
| 1777119744 | 15° C | 86% | 1009.3 hPa | 0 mm | - | 41 W/m² | - |
| 1777119439 | 15° C | 86% | 1009.3 hPa | 0 mm | - | 41 W/m² | - |
| 1777119134 | 15° C | 89% | 1009.2 hPa | 0 mm | - | 41 W/m² | - |
| 1777118830 | 15° C | 89% | 1009.2 hPa | 0 mm | - | 40 W/m² | - |
| 1777118527 | 15° C | 89% | 1009.1 hPa | 0 mm | - | 33 W/m² | - |
| 1777118227 | 15° C | 90% | 1008.8 hPa | 0 mm | - | 30 W/m² | - |
| 1777117924 | 15° C | 89% | 1008.9 hPa | 0 mm | - | 36 W/m² | - |
| 1777117621 | 15° C | 90% | 1009.1 hPa | 0 mm | - | 34 W/m² | - |
| 1777117318 | 15° C | 89% | 1008.7 hPa | 0 mm | - | 21 W/m² | - |
| 1777117014 | 15° C | 90% | 1008.8 hPa | 0 mm | - | 19 W/m² | - |
| 1777116710 | 15° C | 90% | 1008.4 hPa | 0 mm | - | 19 W/m² | - |
| 1777116404 | 15° C | 90% | 1008.5 hPa | 0 mm | - | 17 W/m² | - |
| 1777116101 | 15° C | 90% | 1008.3 hPa | 0 mm | - | 15 W/m² | - |
* Rain latest hour (hover to see other rain measurements)
** Current wind speed in m/s (hover to see current wind gust speed)